• în România
  • Lista ţărilor
  • Pe 7 zile
  • Temperatura apei
  • Hartă satelitară
  • Meteo pe hartă
  • Widget-uri
  • user-avatar
    Intrare

    Meteo pe oră la Ladozhskoe

    Astăzi, 13 Noiembrie, Marţi

    Timp Temperatura Precipitaţii Vânt Presiune Umiditate
    00:00 -6°C° 0 mm 5 m/s 764 mmHg 51%
    01:00 -6°C° 0 mm 5 m/s 763 mmHg 51%
    02:00 -6°C° 0 mm 5 m/s 763 mmHg 52%
    03:00 -6°C° 0 mm 5 m/s 763 mmHg 51%
    04:00 -6°C° 0 mm 5 m/s 762 mmHg 51%
    05:00 -6°C° 0 mm 5 m/s 762 mmHg 51%
    06:00 -6°C° 0 mm 5 m/s 761 mmHg 50%
    07:00 -6°C° 0 mm 6 m/s 761 mmHg 49%
    08:00 -6°C° 0 mm 6 m/s 760 mmHg 49%
    09:00 -5°C° 0.1 mm 6 m/s 760 mmHg 51%
    10:00 -5°C° 0.1 mm 6 m/s 759 mmHg 53%
    11:00 -5°C° 0.1 mm 6 m/s 759 mmHg 55%
    12:00 -5°C° 0.2 mm 6 m/s 758 mmHg 58%
    13:00 -5°C° 0.2 mm 6 m/s 758 mmHg 62%
    14:00 -4°C° 0.2 mm 6 m/s 757 mmHg 66%
    15:00 -4°C° 0.1 mm 6 m/s 757 mmHg 62%
    16:00 -4°C° 0.1 mm 6 m/s 756 mmHg 58%
    17:00 -3°C° 0.1 mm 6 m/s 756 mmHg 55%
    18:00 -3°C° 0 mm 6 m/s 756 mmHg 57%
    19:00 -3°C° 0 mm 6 m/s 755 mmHg 60%
    20:00 -3°C° 0 mm 6 m/s 755 mmHg 63%
    21:00 -3°C° 0.3 mm 6 m/s 755 mmHg 67%
    22:00 -4°C° 0.3 mm 6 m/s 754 mmHg 71%
    23:00 -4°C° 0.3 mm 6 m/s 754 mmHg 75%

    Mâine, 14 Noiembrie, Miercuri

    Timp Temperatura Precipitaţii Vânt Presiune Umiditate
    00:00 -4°C° 0.3 mm 5 m/s 754 mmHg 79%
    01:00 -4°C° 0.3 mm 5 m/s 754 mmHg 82%
    02:00 -4°C° 0.3 mm 5 m/s 753 mmHg 85%
    03:00 -4°C° 0.7 mm 5 m/s 753 mmHg 85%
    04:00 -4°C° 0.7 mm 5 m/s 753 mmHg 84%
    05:00 -3°C° 0.7 mm 4 m/s 752 mmHg 83%
    06:00 -3°C° 0.7 mm 4 m/s 752 mmHg 82%
    07:00 -3°C° 0.7 mm 4 m/s 752 mmHg 82%
    08:00 -4°C° 0.7 mm 4 m/s 752 mmHg 81%
    09:00 -3°C° 0.5 mm 4 m/s 752 mmHg 82%
    10:00 -3°C° 0.5 mm 4 m/s 752 mmHg 82%
    11:00 -3°C° 0.5 mm 4 m/s 752 mmHg 83%
    12:00 -2°C° 0.5 mm 3 m/s 753 mmHg 84%
    13:00 -2°C° 0.5 mm 3 m/s 753 mmHg 84%
    14:00 -2°C° 0.5 mm 3 m/s 753 mmHg 85%
    15:00 -2°C° 0.2 mm 3 m/s 753 mmHg 86%
    16:00 -2°C° 0.2 mm 2 m/s 753 mmHg 86%
    17:00 -2°C° 0.2 mm 2 m/s 754 mmHg 87%
    18:00 -2°C° 0.2 mm 2 m/s 754 mmHg 87%
    19:00 -2°C° 0.2 mm 2 m/s 754 mmHg 88%
    20:00 -2°C° 0.2 mm 2 m/s 755 mmHg 88%
    21:00 -2°C° 0.2 mm 2 m/s 755 mmHg 89%
    22:00 -3°C° 0.2 mm 2 m/s 755 mmHg 90%
    23:00 -1°C° 0.2 mm 1 m/s 756 mmHg 90%

    Poimâine, 15 Noiembrie, Joi

    Timp Temperatura Precipitaţii Vânt Presiune Umiditate
    00:00 -1°C° 0.2 mm 1 m/s 756 mmHg 90%
    01:00 -1°C° 0.2 mm 1 m/s 756 mmHg 90%
    02:00 -1°C° 0.2 mm 1 m/s 757 mmHg 90%
    03:00 -1°C° 0.1 mm 1 m/s 757 mmHg 91%
    04:00 -1°C° 0.1 mm 1 m/s 757 mmHg 91%
    05:00 -1°C° 0.1 mm 1 m/s 758 mmHg 92%
    06:00 -1°C° 0.1 mm 1 m/s 758 mmHg 92%
    07:00 -1°C° 0.1 mm 1 m/s 758 mmHg 93%
    08:00 -1°C° 0.1 mm 1 m/s 759 mmHg 94%
    09:00 -1°C° 0 mm 1 m/s 759 mmHg 92%
    10:00 0°C° 0 mm 1 m/s 760 mmHg 90%
    11:00 0°C° 0 mm 1 m/s 760 mmHg 89%
    12:00 +1°C° 0 mm 1 m/s 760 mmHg 89%
    13:00 +1°C° 0 mm 1 m/s 761 mmHg 90%
    14:00 +1°C° 0 mm 1 m/s 761 mmHg 90%
    15:00 0°C° 0 mm 1 m/s 761 mmHg 92%
    16:00 -1°C° 0 mm 1 m/s 761 mmHg 93%
    17:00 -1°C° 0 mm 1 m/s 762 mmHg 95%
    18:00 -1°C° 0 mm 1 m/s 762 mmHg 95%
    19:00 -1°C° 0 mm 1 m/s 762 mmHg 95%
    20:00 -1°C° 0 mm 1 m/s 763 mmHg 95%
    21:00 -1°C° 0 mm 1 m/s 763 mmHg 96%
    22:00 -1°C° 0 mm 1 m/s 763 mmHg 96%
    23:00 -1°C° 0 mm 1 m/s 763 mmHg 96%

    16 Noiembrie, Vineri

    Timp Temperatura Precipitaţii Vânt Presiune Umiditate
    00:00 -1°C° 0 mm 1 m/s 763 mmHg 96%
    01:00 -3°C° 0 mm 2 m/s 763 mmHg 96%
    02:00 -2°C° 0 mm 2 m/s 763 mmHg 96%
    03:00 -2°C° 0 mm 2 m/s 763 mmHg 96%
    04:00 -2°C° 0 mm 2 m/s 763 mmHg 96%
    05:00 -2°C° 0 mm 2 m/s 763 mmHg 95%
    06:00 -3°C° 0 mm 2 m/s 763 mmHg 95%
    07:00 -4°C° 0 mm 3 m/s 763 mmHg 95%
    08:00 -4°C° 0 mm 3 m/s 763 mmHg 94%
    09:00 -2°C° 0 mm 3 m/s 763 mmHg 93%
    10:00 -1°C° 0 mm 3 m/s 763 mmHg 91%
    11:00 0°C° 0 mm 3 m/s 763 mmHg 90%
    12:00 0°C° 0 mm 3 m/s 763 mmHg 90%
    13:00 0°C° 0 mm 3 m/s 763 mmHg 91%
    14:00 0°C° 0 mm 3 m/s 763 mmHg 92%
    15:00 0°C° 0 mm 3 m/s 763 mmHg 93%
    16:00 0°C° 0 mm 3 m/s 762 mmHg 94%
    17:00 0°C° 0 mm 3 m/s 762 mmHg 96%
    18:00 0°C° 0.1 mm 3 m/s 762 mmHg 96%
    19:00 0°C° 0.1 mm 3 m/s 762 mmHg 97%
    20:00 0°C° 0.1 mm 3 m/s 762 mmHg 97%
    21:00 +1°C° 0 mm 2 m/s 762 mmHg 97%
    22:00 +1°C° 0 mm 2 m/s 762 mmHg 97%
    23:00 +1°C° 0 mm 2 m/s 762 mmHg 98%

    17 Noiembrie, Sâmbătă

    Timp Temperatura Precipitaţii Vânt Presiune Umiditate
    00:00 +2°C° 0 mm 2 m/s 762 mmHg 98%
    01:00 +2°C° 0 mm 2 m/s 762 mmHg 98%
    02:00 +2°C° 0 mm 2 m/s 762 mmHg 98%
    03:00 +2°C° 0 mm 2 m/s 762 mmHg 98%
    04:00 +2°C° 0 mm 2 m/s 761 mmHg 98%
    05:00 +2°C° 0 mm 2 m/s 761 mmHg 98%
    06:00 +2°C° 0 mm 2 m/s 761 mmHg 98%
    07:00 +2°C° 0 mm 2 m/s 760 mmHg 98%
    08:00 +2°C° 0 mm 2 m/s 760 mmHg 98%
    09:00 +1°C° 0 mm 3 m/s 760 mmHg 98%
    10:00 +2°C° 0 mm 3 m/s 759 mmHg 98%
    11:00 +2°C° 0 mm 3 m/s 759 mmHg 97%
    12:00 +2°C° 0 mm 3 m/s 758 mmHg 97%
    13:00 +1°C° 0 mm 3 m/s 757 mmHg 96%
    14:00 0°C° 0 mm 4 m/s 757 mmHg 96%
    15:00 +1°C° 0.1 mm 3 m/s 756 mmHg 96%
    16:00 +1°C° 0.1 mm 3 m/s 755 mmHg 96%
    17:00 +1°C° 0.1 mm 3 m/s 755 mmHg 95%
    18:00 +1°C° 0.1 mm 3 m/s 754 mmHg 95%
    19:00 +2°C° 0.1 mm 3 m/s 753 mmHg 95%
    20:00 +2°C° 0.1 mm 3 m/s 753 mmHg 95%
    21:00 +2°C° 0 mm 3 m/s 752 mmHg 96%
    22:00 +1°C° 0 mm 3 m/s 751 mmHg 96%
    23:00 +1°C° 0 mm 3 m/s 751 mmHg 96%

    18 Noiembrie, Duminică

    Timp Temperatura Precipitaţii Vânt Presiune Umiditate
    00:00 +1°C° 0.1 mm 3 m/s 750 mmHg 95%
    01:00 +1°C° 0.1 mm 3 m/s 750 mmHg 95%
    02:00 +1°C° 0.1 mm 3 m/s 749 mmHg 95%
    03:00 +1°C° 0.1 mm 3 m/s 749 mmHg 95%
    04:00 +1°C° 0.1 mm 3 m/s 748 mmHg 95%
    05:00 +1°C° 0.1 mm 3 m/s 748 mmHg 95%
    06:00 +1°C° 0.1 mm 3 m/s 747 mmHg 95%
    07:00 +1°C° 0.1 mm 3 m/s 747 mmHg 95%
    08:00 +1°C° 0.1 mm 2 m/s 747 mmHg 95%
    09:00 +2°C° 0 mm 2 m/s 747 mmHg 94%
    10:00 +2°C° 0 mm 2 m/s 747 mmHg 93%
    11:00 +2°C° 0 mm 2 m/s 748 mmHg 92%
    12:00 +1°C° 0.3 mm 3 m/s 748 mmHg 93%
    13:00 +1°C° 0.3 mm 3 m/s 749 mmHg 93%
    14:00 +1°C° 0.3 mm 3 m/s 749 mmHg 93%
    15:00 0°C° 0.2 mm 4 m/s 750 mmHg 93%
    16:00 0°C° 0.2 mm 4 m/s 750 mmHg 92%
    17:00 0°C° 0.2 mm 4 m/s 751 mmHg 91%
    18:00 0°C° 0.1 mm 4 m/s 751 mmHg 91%
    19:00 0°C° 0.1 mm 4 m/s 751 mmHg 90%
    20:00 0°C° 0.1 mm 4 m/s 752 mmHg 90%
    21:00 0°C° 0.3 mm 4 m/s 752 mmHg 89%
    22:00 0°C° 0.3 mm 5 m/s 753 mmHg 89%
    23:00 0°C° 0.3 mm 5 m/s 753 mmHg 88%
    Arată mai mult